Crescent City, CA

7:19 PM PST on February 21, 2017 (GMT -0800)
McNamara

Weather History for KCEC - February, 2012

Change the Weather History Date:

Sunday, February 12, 2012

  Actual Average Record
Temperature  
Mean Temperature 42 °F 47 °F  
Max Temperature 49 °F 53 °F 73 °F (1971)
Min Temperature 35 °F 42 °F 29 °F (2001)
Degree Days  
Heating Degree Days 23 18  
Month to date heating degree days 185 216  
Since 1 July heating degree days 2692 2902  
Cooling Degree Days 0 0  
Month to date cooling degree days 0 0  
Year to date cooling degree days 0 0  
Moisture  
Dew Point 41 °F    
Average Humidity 82    
Maximum Humidity 93    
Minimum Humidity 71    
Precipitation  
Precipitation 0.14 in 0.32 in 2.60 in (1958)
Month to date precipitation 0.80 4.04  
Year to date precipitation 13.00 14.43  
Since 1 July precipitation 30.63  
Snow  
Snow 0.00 in - - ()
Month to date snowfall 0.0  
Since 1 July snowfall 0.0  
Snow Depth 0.00 in    
Sea Level Pressure  
Sea Level Pressure 29.95 in    
Wind  
Wind Speed 8 mph (SE)    
Max Wind Speed 27 mph    
Max Gust Speed 36 mph    
Visibility 8 miles    
Events Rain    
T = Trace of Precipitation, MM = Missing Value Source: NWS Daily Summary

Daily Weather History Graph

Daily Weather History Graph

Search for Another Location

Airport or City:

Trip Planner

Search our weather history database for the weather conditions in past years. The results will help you decide how hot, cold, wet, or windy it might be!

Date:

Astronomy

Feb. 12, 2012 Rise Set
Actual Time 7:17 AM PST 5:45 PM PST
Civil Twilight 6:48 AM PST 6:14 PM PST
Nautical Twilight 6:15 AM PST 6:47 PM PST
Astronomical Twilight 5:43 AM PST 7:19 PM PST
Moon 11:57 PM PST (2/12) 9:33 AM PST (2/12)
Length of Visible Light 11h 26m
Length of Day
10h 28m
Waning Gibbous, 71% of the Moon is Illuminated
Feb 12
Waning Gibbous
Feb 14
Last Quarter
Feb 21
New
Feb 29
First Quarter
Mar 8
Full

Hourly Weather History & Observations

Time (PST) Temp. Windchill Dew Point Humidity Pressure Visibility Wind Dir Wind Speed Gust Speed Precip Events Conditions
12:56 AM 39.0 °F 36.8 °F 37.0 °F 93% 30.16 in 10.0 mi East 3.5 mph - N/A   Clear
1:56 AM 39.9 °F 35.8 °F 36.0 °F 86% 30.13 in 10.0 mi East 5.8 mph - N/A   Clear
2:56 AM 37.0 °F - 33.1 °F 86% 30.13 in 10.0 mi Calm Calm - N/A   Clear
3:56 AM 36.0 °F 33.3 °F 33.1 °F 89% 30.13 in 10.0 mi East 3.5 mph - N/A   Clear
4:42 AM 37.4 °F 32.1 °F 33.8 °F 87% 30.12 in 10.0 mi East 6.9 mph - N/A   Mostly Cloudy
4:56 AM 37.0 °F 32.4 °F 34.0 °F 89% 30.12 in 10.0 mi East 5.8 mph - N/A   Mostly Cloudy
5:08 AM 37.4 °F 32.8 °F 33.8 °F 87% 30.11 in 10.0 mi East 5.8 mph - N/A   Scattered Clouds
5:56 AM 37.9 °F 34.4 °F 35.1 °F 89% 30.10 in 10.0 mi East 4.6 mph - N/A   Clear
6:56 AM 37.0 °F 34.5 °F 34.0 °F 89% 30.09 in 10.0 mi East 3.5 mph - N/A   Clear
7:56 AM 39.0 °F 34.8 °F 34.0 °F 82% 30.09 in 10.0 mi East 5.8 mph - N/A   Clear
8:56 AM 41.0 °F 38.0 °F 34.0 °F 76% 30.08 in 10.0 mi East 4.6 mph - N/A   Overcast
9:56 AM 43.0 °F - 37.0 °F 80% 30.08 in 10.0 mi Calm Calm - N/A   Overcast
10:39 AM 44.6 °F 43.1 °F 37.4 °F 76% 30.06 in 10.0 mi East 3.5 mph - N/A   Overcast
10:56 AM 46.0 °F 43.1 °F 39.9 °F 79% 30.06 in 10.0 mi SE 5.8 mph - N/A   Overcast
11:22 AM 48.2 °F - 41.0 °F 76% 30.06 in 10.0 mi SSE 9.2 mph - N/A   Overcast
11:56 AM 46.9 °F - 41.0 °F 80% 30.05 in 10.0 mi SSE 10.4 mph - N/A   Overcast
12:56 PM 48.0 °F - 41.0 °F 77% 30.02 in 10.0 mi South 11.5 mph - N/A   Overcast
1:56 PM 48.9 °F - 43.0 °F 80% 30.01 in 10.0 mi South 12.7 mph - N/A   Overcast
2:23 PM 48.2 °F - 44.6 °F 87% 29.99 in 10.0 mi SSE 8.1 mph - 0.00 in Rain Light Rain
2:30 PM 48.2 °F - 44.6 °F 87% 29.99 in 10.0 mi SSE 11.5 mph - 0.00 in Rain Light Rain
2:56 PM 48.0 °F - 44.1 °F 86% 29.98 in 10.0 mi SSE 11.5 mph - 0.00 in Rain Light Rain
3:56 PM 48.0 °F - 44.1 °F 86% 29.94 in 10.0 mi SE 9.2 mph - 0.01 in Rain Light Rain
4:56 PM 48.9 °F - 42.1 °F 77% 29.90 in 10.0 mi SSE 12.7 mph - 0.00 in   Overcast
5:56 PM 48.9 °F - 39.0 °F 69% 29.88 in 10.0 mi South 21.9 mph 27.6 mph N/A   Overcast
6:49 PM 46.4 °F 38.7 °F 42.8 °F 87% 29.87 in 7.0 mi South 20.7 mph - 0.00 in Rain Light Rain
6:56 PM 46.9 °F - 42.1 °F 83% 29.87 in 8.0 mi SSE 17.3 mph 27.6 mph 0.00 in Rain Light Rain
7:16 PM 46.4 °F 37.9 °F 42.8 °F 87% 29.86 in 4.0 mi South 25.3 mph 32.2 mph 0.02 in Rain Rain
7:49 PM 46.4 °F 39.0 °F 44.6 °F 93% 29.84 in 6.0 mi SSE 19.6 mph 26.5 mph 0.10 in Rain Light Rain
7:56 PM 46.0 °F 38.0 °F 44.1 °F 93% 29.84 in 5.0 mi SSE 21.9 mph 28.8 mph 0.11 in Rain Rain
8:10 PM 46.4 °F 38.3 °F 44.6 °F 93% 29.83 in 6.0 mi SE 23.0 mph 29.9 mph 0.01 in Rain Light Rain
8:24 PM 46.4 °F 38.7 °F 44.6 °F 93% 29.82 in 6.0 mi SE 20.7 mph 27.6 mph 0.01 in Rain Light Rain
8:37 PM 46.4 °F 38.5 °F 44.6 °F 93% 29.81 in 6.0 mi SSE 21.9 mph 32.2 mph 0.01 in Rain Light Rain
8:56 PM 46.9 °F - 45.0 °F 93% 29.81 in 4.0 mi SE 26.5 mph 35.7 mph 0.01 in Rain Light Rain
9:21 PM 46.4 °F 38.1 °F 44.6 °F 93% 29.80 in 7.0 mi SE 24.2 mph 33.4 mph 0.00 in Rain Light Rain
9:35 PM 46.4 °F 38.1 °F 44.6 °F 93% 29.79 in 4.0 mi SE 24.2 mph 34.5 mph N/A Rain Light Rain
9:56 PM 46.9 °F - 46.0 °F 97% 29.80 in 9.0 mi SSE 19.6 mph - 0.00 in   Overcast
10:04 PM 46.4 °F 39.2 °F 46.4 °F 100% 29.79 in 9.0 mi South 18.4 mph - N/A   Overcast
10:28 PM 46.4 °F 40.1 °F 46.4 °F 100% 29.79 in 7.0 mi SSE 15.0 mph - N/A   Overcast
10:44 PM 46.4 °F 40.1 °F 44.6 °F 93% 29.79 in 6.0 mi SSE 15.0 mph 24.2 mph 0.00 in Rain Light Rain
10:56 PM 46.9 °F - 45.0 °F 93% 29.79 in 4.0 mi SSE 17.3 mph 27.6 mph 0.01 in Rain Light Rain
11:12 PM 46.4 °F 39.2 °F 44.6 °F 93% 29.78 in 5.0 mi SE 18.4 mph 26.5 mph 0.00 in Rain Light Rain
11:56 PM 46.9 °F - 46.0 °F 97% 29.80 in 10.0 mi SE 13.8 mph - 0.00 in Rain Light Rain